Time,TemperatureF,DewpointF,PressureIn,WindDirection,WindDirectionDegrees,WindSpeedMPH,WindSpeedGustMPH,Humidity,HourlyPrecipIn,Conditions,Clouds,dailyrainin,SolarRadiationWatts/m^2,SoftwareType,DateUTC
2013-03-19 00:00:00,34.6,32.2,30.20,NW,315,0.0,0.0,91,0.00,,,0.08,0,Wunderground v.1.15,2013-03-19 07:00:00,
2013-03-19 00:05:00,34.6,32.2,30.20,NW,315,0.0,0.0,91,0.00,,,0.00,0,Wunderground v.1.15,2013-03-19 07:05:00,
2013-03-19 00:11:00,34.4,32.0,30.19,NW,315,0.0,0.0,91,0.00,,,0.00,0,Wunderground v.1.15,2013-03-19 07:11:00,
2013-03-19 00:16:00,34.3,31.9,30.19,NW,315,0.0,0.0,91,0.00,,,0.00,0,Wunderground v.1.15,2013-03-19 07:16:00,
2013-03-19 00:21:00,34.3,31.9,30.20,NW,315,0.0,0.0,91,0.00,,,0.00,0,Wunderground v.1.15,2013-03-19 07:21:00,
2013-03-19 00:26:00,34.3,31.9,30.19,NW,315,0.0,0.0,91,0.00,,,0.00,0,Wunderground v.1.15,2013-03-19 07:26:00,
2013-03-19 00:31:00,34.1,31.7,30.19,NW,315,0.0,0.0,91,0.00,,,0.00,0,Wunderground v.1.15,2013-03-19 07:31:00,
2013-03-19 00:36:00,34.1,31.7,30.19,NW,315,0.0,0.0,91,0.00,,,0.00,0,Wunderground v.1.15,2013-03-19 07:36:00,
2013-03-19 00:41:00,34.1,31.7,30.18,NW,315,0.0,0.0,91,0.00,,,0.00,0,Wunderground v.1.15,2013-03-19 07:41:00,
2013-03-19 00:46:00,34.0,31.9,30.18,NW,315,0.0,0.0,92,0.00,,,0.00,0,Wunderground v.1.15,2013-03-19 07:46:00,
2013-03-19 00:52:00,33.8,31.5,30.18,NW,315,0.0,0.0,91,0.00,,,0.00,0,Wunderground v.1.15,2013-03-19 07:52:00,
2013-03-19 00:57:00,33.5,31.2,30.18,NW,315,0.0,1.0,91,0.00,,,0.00,0,Wunderground v.1.15,2013-03-19 07:57:00,
2013-03-19 01:02:00,33.4,31.1,30.17,NW,315,0.0,0.0,91,0.00,,,0.00,0,Wunderground v.1.15,2013-03-19 08:02:00,
2013-03-19 01:07:00,33.2,30.9,30.17,NW,315,0.0,0.0,91,0.00,,,0.00,0,Wunderground v.1.15,2013-03-19 08:07:00,
2013-03-19 01:13:00,33.2,30.9,30.17,NW,315,0.0,0.0,91,0.00,,,0.00,0,Wunderground v.1.15,2013-03-19 08:13:00,
2013-03-19 01:18:00,33.1,31.0,30.17,NW,315,0.0,0.0,92,0.00,,,0.00,0,Wunderground v.1.15,2013-03-19 08:18:00,
2013-03-19 01:23:00,33.1,31.0,30.16,NW,315,0.0,0.0,92,0.00,,,0.00,0,Wunderground v.1.15,2013-03-19 08:23:00,
2013-03-19 01:28:00,32.9,30.8,30.16,NW,315,0.0,0.0,92,0.00,,,0.00,0,Wunderground v.1.15,2013-03-19 08:28:00,
2013-03-19 01:33:00,32.9,30.8,30.16,NW,315,0.0,0.0,92,0.00,,,0.00,0,Wunderground v.1.15,2013-03-19 08:33:00,
2013-03-19 01:38:00,32.9,30.8,30.16,NW,315,0.0,0.0,92,0.00,,,0.00,0,Wunderground v.1.15,2013-03-19 08:38:00,
2013-03-19 01:44:00,32.9,30.6,30.16,NW,315,0.0,1.0,91,0.00,,,0.00,0,Wunderground v.1.15,2013-03-19 08:44:00,
2013-03-19 01:50:00,32.8,30.5,30.16,NW,315,0.0,0.0,91,0.00,,,0.00,0,Wunderground v.1.15,2013-03-19 08:50:00,
2013-03-19 01:55:00,32.5,30.2,30.15,NW,315,0.0,0.0,91,0.00,,,0.00,0,Wunderground v.1.15,2013-03-19 08:55:00,
2013-03-19 02:00:00,32.5,30.4,30.15,NW,315,0.0,0.0,92,0.00,,,0.00,0,Wunderground v.1.15,2013-03-19 09:00:00,
2013-03-19 02:05:00,32.4,30.3,30.15,NW,315,0.0,1.0,92,0.00,,,0.00,0,Wunderground v.1.15,2013-03-19 09:05:00,
2013-03-19 02:11:00,32.4,30.3,30.15,NW,315,0.0,0.0,92,0.00,,,0.00,0,Wunderground v.1.15,2013-03-19 09:11:00,
2013-03-19 02:16:00,32.2,30.1,30.15,NW,315,0.0,1.0,92,0.00,,,0.00,0,Wunderground v.1.15,2013-03-19 09:16:00,
2013-03-19 02:21:00,32.2,30.4,30.15,NW,315,1.0,2.0,93,0.00,,,0.00,0,Wunderground v.1.15,2013-03-19 09:21:00,
2013-03-19 02:26:00,32.4,30.6,30.15,NW,315,1.0,2.0,93,0.00,,,0.00,0,Wunderground v.1.15,2013-03-19 09:26:00,
2013-03-19 02:31:00,32.4,30.6,30.14,NW,315,1.0,1.0,93,0.00,,,0.00,0,Wunderground v.1.15,2013-03-19 09:31:00,
2013-03-19 02:37:00,32.5,31.0,30.14,NW,315,1.0,2.0,94,0.00,,,0.00,0,Wunderground v.1.15,2013-03-19 09:37:00,
2013-03-19 02:42:00,32.5,31.0,30.14,NW,315,0.0,1.0,94,0.00,,,0.00,0,Wunderground v.1.15,2013-03-19 09:42:00,
2013-03-19 02:47:00,32.5,31.0,30.14,NW,315,0.0,1.0,94,0.00,,,0.00,0,Wunderground v.1.15,2013-03-19 09:47:00,
2013-03-19 02:52:00,32.5,31.0,30.14,NW,315,1.0,1.0,94,0.00,,,0.00,0,Wunderground v.1.15,2013-03-19 09:52:00,
2013-03-19 02:57:00,32.5,31.0,30.14,NW,315,1.0,1.0,94,0.00,,,0.00,0,Wunderground v.1.15,2013-03-19 09:57:00,
2013-03-19 03:03:00,32.5,31.0,30.13,NW,315,1.0,1.0,94,0.00,,,0.00,0,Wunderground v.1.15,2013-03-19 10:03:00,
2013-03-19 03:08:00,32.5,31.0,30.13,NW,315,0.0,1.0,94,0.00,,,0.00,0,Wunderground v.1.15,2013-03-19 10:08:00,
2013-03-19 03:13:00,32.5,31.2,30.13,NW,315,0.0,0.0,95,0.00,,,0.00,0,Wunderground v.1.15,2013-03-19 10:13:00,
2013-03-19 03:18:00,32.5,31.2,30.13,NW,315,0.0,0.0,95,0.00,,,0.00,0,Wunderground v.1.15,2013-03-19 10:18:00,
2013-03-19 03:23:00,32.7,31.4,30.12,NW,315,0.0,0.0,95,0.00,,,0.00,0,Wunderground v.1.15,2013-03-19 10:23:00,
2013-03-19 03:28:00,32.7,31.4,30.12,NW,315,0.0,0.0,95,0.00,,,0.00,0,Wunderground v.1.15,2013-03-19 10:28:00,
2013-03-19 03:33:00,32.8,31.5,30.12,NW,315,0.0,0.0,95,0.00,,,0.00,0,Wunderground v.1.15,2013-03-19 10:33:00,
2013-03-19 03:38:00,32.9,31.6,30.12,NW,315,0.0,0.0,95,0.00,,,0.00,0,Wunderground v.1.15,2013-03-19 10:38:00,
2013-03-19 03:43:00,32.9,31.6,30.12,NW,315,0.0,0.0,95,0.00,,,0.00,0,Wunderground v.1.15,2013-03-19 10:43:00,
2013-03-19 03:48:00,32.9,31.6,30.11,NW,315,0.0,0.0,95,0.00,,,0.00,0,Wunderground v.1.15,2013-03-19 10:48:00,
2013-03-19 03:54:00,32.9,31.6,30.11,NW,315,0.0,0.0,95,0.00,,,0.00,0,Wunderground v.1.15,2013-03-19 10:54:00,
2013-03-19 04:00:00,32.9,31.6,30.11,NW,315,0.0,0.0,95,0.00,,,0.00,0,Wunderground v.1.15,2013-03-19 11:00:00,
2013-03-19 04:05:00,32.9,31.6,30.11,NW,315,0.0,3.0,95,0.00,,,0.00,0,Wunderground v.1.15,2013-03-19 11:05:00,
2013-03-19 04:11:00,32.9,31.9,30.10,NW,315,0.0,0.0,96,0.00,,,0.00,0,Wunderground v.1.15,2013-03-19 11:11:00,
2013-03-19 04:16:00,33.1,32.1,30.10,NW,315,0.0,0.0,96,0.00,,,0.00,0,Wunderground v.1.15,2013-03-19 11:16:00,
2013-03-19 04:21:00,33.1,32.1,30.10,NW,315,0.0,0.0,96,0.00,,,0.00,0,Wunderground v.1.15,2013-03-19 11:21:00,
2013-03-19 04:27:00,33.2,32.2,30.10,NW,315,0.0,0.0,96,0.00,,,0.00,0,Wunderground v.1.15,2013-03-19 11:27:00,
2013-03-19 04:32:00,33.2,32.2,30.10,NW,315,0.0,1.0,96,0.00,,,0.00,0,Wunderground v.1.15,2013-03-19 11:32:00,
2013-03-19 04:37:00,33.2,32.2,30.10,NW,315,0.0,1.0,96,0.00,,,0.00,0,Wunderground v.1.15,2013-03-19 11:37:00,
2013-03-19 04:42:00,33.2,32.2,30.09,NW,315,0.0,0.0,96,0.00,,,0.00,0,Wunderground v.1.15,2013-03-19 11:42:00,
2013-03-19 04:47:00,33.4,32.4,30.09,NW,315,0.0,0.0,96,0.00,,,0.00,0,Wunderground v.1.15,2013-03-19 11:47:00,
2013-03-19 04:52:00,33.2,31.9,30.09,NW,315,0.0,1.0,95,0.00,,,0.00,0,Wunderground v.1.15,2013-03-19 11:52:00,
2013-03-19 04:57:00,33.1,31.8,30.09,NW,315,0.0,1.0,95,0.00,,,0.00,0,Wunderground v.1.15,2013-03-19 11:57:00,
2013-03-19 05:03:00,32.9,31.9,30.09,NW,315,0.0,0.0,96,0.00,,,0.00,0,Wunderground v.1.15,2013-03-19 12:03:00,
2013-03-19 05:08:00,32.9,31.9,30.09,NW,315,0.0,0.0,96,0.00,,,0.00,0,Wunderground v.1.15,2013-03-19 12:08:00,
2013-03-19 05:13:00,32.9,31.9,30.09,NW,315,0.0,0.0,96,0.00,,,0.00,0,Wunderground v.1.15,2013-03-19 12:13:00,
2013-03-19 05:18:00,32.9,31.9,30.09,NW,315,0.0,0.0,96,0.00,,,0.00,0,Wunderground v.1.15,2013-03-19 12:18:00,
2013-03-19 05:24:00,32.9,31.9,30.08,NW,315,0.0,0.0,96,0.00,,,0.00,0,Wunderground v.1.15,2013-03-19 12:24:00,
2013-03-19 05:29:00,32.9,31.9,30.09,WNW,294,1.0,3.0,96,0.00,,,0.00,0,Wunderground v.1.15,2013-03-19 12:29:00,
2013-03-19 05:34:00,32.8,31.8,30.08,WNW,294,1.0,1.0,96,0.00,,,0.00,0,Wunderground v.1.15,2013-03-19 12:34:00,
2013-03-19 05:39:00,32.8,31.8,30.08,WNW,294,0.0,1.0,96,0.00,,,0.00,0,Wunderground v.1.15,2013-03-19 12:39:00,
2013-03-19 05:44:00,32.7,31.7,30.08,WNW,294,0.0,0.0,96,0.00,,,0.00,0,Wunderground v.1.15,2013-03-19 12:44:00,
2013-03-19 05:49:00,32.7,31.4,30.08,WNW,294,0.0,0.0,95,0.00,,,0.00,0,Wunderground v.1.15,2013-03-19 12:49:00,
2013-03-19 05:54:00,32.5,31.2,30.08,WNW,294,0.0,0.0,95,0.00,,,0.00,0,Wunderground v.1.15,2013-03-19 12:54:00,
2013-03-19 05:59:00,32.5,31.5,30.08,WNW,294,0.0,1.0,96,0.00,,,0.00,0,Wunderground v.1.15,2013-03-19 12:59:00,
2013-03-19 06:05:00,32.4,31.1,30.08,WNW,294,0.0,1.0,95,0.00,,,0.00,0,Wunderground v.1.15,2013-03-19 13:05:00,
2013-03-19 06:11:00,32.4,31.4,30.07,WNW,294,0.0,1.0,96,0.00,,,0.00,0,Wunderground v.1.15,2013-03-19 13:11:00,
2013-03-19 06:16:00,32.4,31.4,30.07,WNW,294,0.0,1.0,96,0.00,,,0.00,0,Wunderground v.1.15,2013-03-19 13:16:00,
2013-03-19 06:21:00,32.4,31.4,30.07,WNW,294,0.0,0.0,96,0.00,,,0.00,0,Wunderground v.1.15,2013-03-19 13:21:00,
2013-03-19 06:27:00,32.2,31.2,30.07,WNW,294,0.0,0.0,96,0.00,,,0.00,0,Wunderground v.1.15,2013-03-19 13:27:00,
2013-03-19 06:33:00,32.4,31.4,30.07,WNW,294,0.0,0.0,96,0.00,,,0.00,0,Wunderground v.1.15,2013-03-19 13:33:00,
2013-03-19 06:38:00,32.4,31.4,30.07,WNW,294,0.0,0.0,96,0.00,,,0.00,0,Wunderground v.1.15,2013-03-19 13:38:00,
2013-03-19 06:43:00,32.4,31.4,30.07,WNW,294,0.0,0.0,96,0.00,,,0.00,0,Wunderground v.1.15,2013-03-19 13:43:00,
2013-03-19 06:48:00,32.4,31.4,30.07,WNW,294,0.0,0.0,96,0.00,,,0.00,0,Wunderground v.1.15,2013-03-19 13:48:00,
2013-03-19 06:53:00,32.4,31.4,30.07,WNW,294,0.0,0.0,96,0.00,,,0.00,0,Wunderground v.1.15,2013-03-19 13:53:00,
2013-03-19 06:58:00,32.4,31.4,30.06,WNW,294,0.0,0.0,96,0.00,,,0.00,0,Wunderground v.1.15,2013-03-19 13:58:00,
2013-03-19 07:04:00,32.5,31.5,30.06,WNW,294,0.0,2.0,96,0.00,,,0.00,0,Wunderground v.1.15,2013-03-19 14:04:00,
2013-03-19 07:09:00,32.5,31.5,30.06,WNW,294,0.0,2.0,96,0.00,,,0.00,0,Wunderground v.1.15,2013-03-19 14:09:00,
2013-03-19 07:15:00,32.4,31.4,30.06,WNW,294,0.0,0.0,96,0.00,,,0.00,0,Wunderground v.1.15,2013-03-19 14:15:00,
2013-03-19 07:20:00,32.4,31.4,30.06,WNW,294,0.0,0.0,96,0.00,,,0.00,0,Wunderground v.1.15,2013-03-19 14:20:00,
2013-03-19 07:26:00,32.4,31.4,30.06,WNW,294,0.0,0.0,96,0.00,,,0.00,9,Wunderground v.1.15,2013-03-19 14:26:00,
2013-03-19 07:31:00,32.4,31.4,30.05,WNW,294,0.0,0.0,96,0.00,,,0.00,14,Wunderground v.1.15,2013-03-19 14:31:00,
2013-03-19 07:37:00,32.4,31.4,30.05,WNW,294,0.0,0.0,96,0.00,,,0.00,25,Wunderground v.1.15,2013-03-19 14:37:00,
2013-03-19 07:42:00,32.5,31.5,30.05,WNW,294,0.0,0.0,96,0.00,,,0.00,33,Wunderground v.1.15,2013-03-19 14:42:00,
2013-03-19 07:47:00,32.5,31.5,30.05,WNW,294,0.0,0.0,96,0.00,,,0.00,42,Wunderground v.1.15,2013-03-19 14:47:00,
2013-03-19 07:52:00,32.5,31.5,30.05,WNW,294,0.0,0.0,96,0.00,,,0.00,49,Wunderground v.1.15,2013-03-19 14:52:00,
2013-03-19 07:58:00,32.7,31.7,30.05,WNW,294,0.0,1.0,96,0.00,,,0.00,49,Wunderground v.1.15,2013-03-19 14:58:00,
2013-03-19 08:03:00,32.8,31.8,30.05,WNW,294,0.0,1.0,96,0.00,,,0.00,47,Wunderground v.1.15,2013-03-19 15:03:00,
2013-03-19 08:08:00,32.9,32.1,30.05,WNW,294,0.0,1.0,97,0.00,,,0.00,49,Wunderground v.1.15,2013-03-19 15:08:00,
2013-03-19 08:13:00,33.1,32.3,30.05,WNW,294,0.0,0.0,97,0.00,,,0.00,46,Wunderground v.1.15,2013-03-19 15:13:00,
2013-03-19 08:18:00,33.2,32.4,30.05,WNW,294,0.0,1.0,97,0.00,,,0.00,51,Wunderground v.1.15,2013-03-19 15:18:00,
2013-03-19 08:24:00,33.2,32.2,30.05,WNW,294,0.0,0.0,96,0.00,,,0.00,60,Wunderground v.1.15,2013-03-19 15:24:00,
2013-03-19 08:29:00,33.4,32.6,30.05,WNW,294,0.0,0.0,97,0.00,,,0.00,70,Wunderground v.1.15,2013-03-19 15:29:00,
2013-03-19 08:35:00,33.5,32.7,30.05,WNW,294,0.0,0.0,97,0.00,,,0.00,81,Wunderground v.1.15,2013-03-19 15:35:00,
2013-03-19 08:40:00,33.7,32.7,30.05,WNW,294,0.0,1.0,96,0.00,,,0.00,86,Wunderground v.1.15,2013-03-19 15:40:00,
2013-03-19 08:46:00,33.8,32.8,30.05,WNW,294,0.0,1.0,96,0.00,,,0.00,91,Wunderground v.1.15,2013-03-19 15:46:00,
2013-03-19 08:51:00,34.0,33.0,30.05,WNW,294,0.0,0.0,96,0.00,,,0.00,109,Wunderground v.1.15,2013-03-19 15:51:00,
2013-03-19 08:56:00,34.1,33.1,30.05,WNW,294,0.0,0.0,96,0.00,,,0.00,114,Wunderground v.1.15,2013-03-19 15:56:00,
2013-03-19 09:01:00,34.1,33.1,30.04,WNW,294,0.0,2.0,96,0.00,,,0.00,113,Wunderground v.1.15,2013-03-19 16:01:00,
2013-03-19 09:06:00,34.3,33.3,30.04,WNW,294,1.0,2.0,96,0.00,,,0.00,116,Wunderground v.1.15,2013-03-19 16:06:00,
2013-03-19 09:11:00,34.6,33.6,30.04,WNW,294,1.0,1.0,96,0.00,,,0.00,123,Wunderground v.1.15,2013-03-19 16:11:00,
2013-03-19 09:17:00,34.9,33.6,30.04,WNW,294,0.0,1.0,95,0.00,,,0.00,137,Wunderground v.1.15,2013-03-19 16:17:00,
2013-03-19 09:23:00,35.2,33.9,30.04,WNW,294,0.0,1.0,95,0.00,,,0.00,144,Wunderground v.1.15,2013-03-19 16:23:00,
2013-03-19 09:28:00,35.5,33.9,30.04,WNW,294,0.0,1.0,94,0.00,,,0.00,148,Wunderground v.1.15,2013-03-19 16:28:00,
2013-03-19 09:33:00,35.8,34.2,30.04,WNW,294,0.0,0.0,94,0.00,,,0.00,156,Wunderground v.1.15,2013-03-19 16:33:00,
2013-03-19 09:39:00,36.2,34.4,30.04,WNW,294,0.0,0.0,93,0.00,,,0.00,174,Wunderground v.1.15,2013-03-19 16:39:00,
2013-03-19 09:44:00,36.5,34.4,30.04,WNW,294,0.0,1.0,92,0.00,,,0.00,188,Wunderground v.1.15,2013-03-19 16:44:00,
2013-03-19 09:50:00,37.0,34.6,30.04,WNW,294,0.0,0.0,91,0.00,,,0.00,218,Wunderground v.1.15,2013-03-19 16:50:00,
2013-03-19 09:55:00,37.3,34.4,30.03,WNW,294,0.0,1.0,89,0.00,,,0.00,236,Wunderground v.1.15,2013-03-19 16:55:00,
2013-03-19 10:00:00,37.5,34.3,30.03,WNW,294,0.0,0.0,88,0.00,,,0.00,260,Wunderground v.1.15,2013-03-19 17:00:00,
2013-03-19 10:05:00,37.9,34.1,30.03,WNW,294,0.0,2.0,86,0.00,,,0.00,258,Wunderground v.1.15,2013-03-19 17:05:00,
2013-03-19 10:11:00,38.5,34.4,30.03,WNW,294,0.0,0.0,85,0.00,,,0.00,276,Wunderground v.1.15,2013-03-19 17:11:00,
2013-03-19 10:16:00,38.9,34.5,30.02,WNW,294,0.0,0.0,84,0.00,,,0.00,336,Wunderground v.1.15,2013-03-19 17:16:00,
2013-03-19 10:21:00,39.2,34.5,30.02,WNW,294,0.0,0.0,83,0.00,,,0.00,445,Wunderground v.1.15,2013-03-19 17:21:00,
2013-03-19 10:26:00,39.6,34.6,30.02,WNW,294,0.0,1.0,82,0.00,,,0.00,390,Wunderground v.1.15,2013-03-19 17:26:00,
2013-03-19 10:32:00,40.5,34.5,30.02,WNW,294,0.0,0.0,79,0.00,,,0.00,350,Wunderground v.1.15,2013-03-19 17:32:00,
2013-03-19 10:37:00,40.8,34.8,30.02,SE,142,0.0,2.0,79,0.00,,,0.00,250,Wunderground v.1.15,2013-03-19 17:37:00,
2013-03-19 10:42:00,40.9,35.2,30.02,SE,142,0.0,1.0,80,0.00,,,0.00,214,Wunderground v.1.15,2013-03-19 17:42:00,
2013-03-19 10:47:00,40.9,35.2,30.01,SE,142,0.0,1.0,80,0.00,,,0.00,234,Wunderground v.1.15,2013-03-19 17:47:00,
2013-03-19 10:53:00,40.9,34.9,30.02,SE,142,0.0,0.0,79,0.00,,,0.00,197,Wunderground v.1.15,2013-03-19 17:53:00,
2013-03-19 10:58:00,41.1,35.1,30.02,SE,144,0.0,2.0,79,0.00,,,0.00,158,Wunderground v.1.15,2013-03-19 17:58:00,
2013-03-19 11:04:00,41.1,34.8,30.01,SSE,147,1.0,1.0,78,0.00,,,0.00,204,Wunderground v.1.15,2013-03-19 18:04:00,
2013-03-19 11:09:00,41.2,34.9,30.01,SSE,147,1.0,2.0,78,0.00,,,0.00,207,Wunderground v.1.15,2013-03-19 18:09:00,
2013-03-19 11:14:00,41.3,35.0,30.01,SW,231,1.0,3.0,78,0.00,,,0.00,188,Wunderground v.1.15,2013-03-19 18:14:00,
2013-03-19 11:20:00,41.5,35.2,30.01,SW,231,1.0,1.0,78,0.00,,,0.00,183,Wunderground v.1.15,2013-03-19 18:20:00,
2013-03-19 11:25:00,42.1,35.4,30.00,SW,231,0.0,1.0,77,0.00,,,0.00,179,Wunderground v.1.15,2013-03-19 18:25:00,
2013-03-19 11:30:00,42.3,35.3,30.00,SW,231,0.0,0.0,76,0.00,,,0.00,192,Wunderground v.1.15,2013-03-19 18:30:00,
2013-03-19 11:35:00,42.8,35.8,30.00,SW,231,0.0,0.0,76,0.00,,,0.00,169,Wunderground v.1.15,2013-03-19 18:35:00,
2013-03-19 11:40:00,42.9,35.5,30.00,SW,231,0.0,1.0,75,0.00,,,0.00,149,Wunderground v.1.15,2013-03-19 18:40:00,
2013-03-19 11:45:00,42.9,35.5,30.00,SW,231,0.0,1.0,75,0.00,,,0.00,174,Wunderground v.1.15,2013-03-19 18:45:00,
2013-03-19 11:51:00,43.3,35.6,29.99,SW,223,0.0,0.0,74,0.00,,,0.00,197,Wunderground v.1.15,2013-03-19 18:51:00,
2013-03-19 11:57:00,43.5,36.1,29.99,SW,223,0.0,0.0,75,0.00,,,0.00,185,Wunderground v.1.15,2013-03-19 18:57:00,
2013-03-19 12:02:00,43.8,35.7,29.99,SW,223,0.0,3.0,73,0.00,,,0.00,163,Wunderground v.1.15,2013-03-19 19:02:00,
2013-03-19 12:07:00,43.9,36.1,29.98,SE,142,1.0,3.0,74,0.00,,,0.00,174,Wunderground v.1.15,2013-03-19 19:07:00,
2013-03-19 12:12:00,43.9,36.1,29.98,ESE,111,2.0,3.0,74,0.00,,,0.00,195,Wunderground v.1.15,2013-03-19 19:12:00,
2013-03-19 12:17:00,43.9,36.5,29.97,ENE,70,2.0,3.0,75,0.00,,,0.00,223,Wunderground v.1.15,2013-03-19 19:17:00,
2013-03-19 12:23:00,44.2,36.4,29.98,NE,51,1.0,2.0,74,0.00,,,0.00,246,Wunderground v.1.15,2013-03-19 19:23:00,
2013-03-19 12:28:00,44.5,36.0,29.98,NE,51,0.0,2.0,72,0.00,,,0.00,178,Wunderground v.1.15,2013-03-19 19:28:00,
2013-03-19 12:34:00,44.8,36.3,29.97,NE,51,0.0,1.0,72,0.00,,,0.00,144,Wunderground v.1.15,2013-03-19 19:34:00,
2013-03-19 12:39:00,45.1,36.6,29.97,NE,51,0.0,1.0,72,0.00,,,0.00,197,Wunderground v.1.15,2013-03-19 19:39:00,
2013-03-19 12:44:00,45.2,36.7,29.97,ENE,59,1.0,3.0,72,0.00,,,0.00,225,Wunderground v.1.15,2013-03-19 19:44:00,
2013-03-19 12:50:00,45.5,37.0,29.96,ENE,59,1.0,1.0,72,0.00,,,0.00,241,Wunderground v.1.15,2013-03-19 19:50:00,
2013-03-19 12:55:00,45.7,37.2,29.96,ENE,59,0.0,1.0,72,0.00,,,0.00,272,Wunderground v.1.15,2013-03-19 19:55:00,
2013-03-19 13:00:00,46.0,37.5,29.96,ENE,59,0.0,0.0,72,0.00,,,0.00,294,Wunderground v.1.15,2013-03-19 20:00:00,
2013-03-19 13:05:00,46.4,37.9,29.96,ENE,59,0.0,1.0,72,0.00,,,0.00,265,Wunderground v.1.15,2013-03-19 20:05:00,
2013-03-19 13:11:00,46.7,37.8,29.95,ENE,59,0.0,2.0,71,0.00,,,0.00,197,Wunderground v.1.15,2013-03-19 20:11:00,
2013-03-19 13:16:00,46.8,37.9,29.95,ENE,59,0.0,2.0,71,0.00,,,0.00,234,Wunderground v.1.15,2013-03-19 20:16:00,
2013-03-19 13:21:00,47.3,38.0,29.95,ENE,59,0.0,0.0,70,0.00,,,0.00,211,Wunderground v.1.15,2013-03-19 20:21:00,
2013-03-19 13:26:00,47.6,37.9,29.94,ENE,59,0.0,0.0,69,0.00,,,0.00,244,Wunderground v.1.15,2013-03-19 20:26:00,
2013-03-19 13:32:00,47.9,38.2,29.93,ENE,59,0.0,0.0,69,0.00,,,0.00,285,Wunderground v.1.15,2013-03-19 20:32:00,
2013-03-19 13:37:00,48.2,38.9,29.93,ENE,59,0.0,2.0,70,0.00,,,0.00,257,Wunderground v.1.15,2013-03-19 20:37:00,
2013-03-19 13:42:00,48.0,38.7,29.94,ENE,59,1.0,1.0,70,0.00,,,0.00,193,Wunderground v.1.15,2013-03-19 20:42:00,
2013-03-19 13:48:00,48.2,39.2,29.93,ENE,59,1.0,2.0,71,0.00,,,0.00,200,Wunderground v.1.15,2013-03-19 20:48:00,
2013-03-19 13:53:00,48.3,39.3,29.94,ENE,59,0.0,0.0,71,0.00,,,0.00,190,Wunderground v.1.15,2013-03-19 20:53:00,
2013-03-19 13:58:00,48.6,39.3,29.93,ENE,59,0.0,0.0,70,0.00,,,0.00,183,Wunderground v.1.15,2013-03-19 20:58:00,
2013-03-19 14:03:00,48.9,39.9,29.93,ENE,59,0.0,0.0,71,0.00,,,0.00,160,Wunderground v.1.15,2013-03-19 21:03:00,
2013-03-19 14:08:00,49.2,39.8,29.92,WNW,300,0.0,3.0,70,0.00,,,0.00,148,Wunderground v.1.15,2013-03-19 21:08:00,
2013-03-19 14:13:00,49.4,40.4,29.92,WNW,288,1.0,1.0,71,0.00,,,0.00,114,Wunderground v.1.15,2013-03-19 21:13:00,
2013-03-19 14:18:00,49.4,39.3,29.92,WNW,289,1.0,5.0,68,0.00,,,0.00,100,Wunderground v.1.15,2013-03-19 21:18:00,
2013-03-19 14:23:00,49.4,40.0,29.92,WNW,289,1.0,1.0,70,0.00,,,0.00,121,Wunderground v.1.15,2013-03-19 21:23:00,
2013-03-19 14:29:00,49.5,40.1,29.91,WNW,289,0.0,1.0,70,0.00,,,0.00,125,Wunderground v.1.15,2013-03-19 21:29:00,
2013-03-19 14:34:00,49.4,40.7,29.91,WNW,289,0.0,2.0,72,0.00,,,0.00,116,Wunderground v.1.15,2013-03-19 21:34:00,
2013-03-19 14:39:00,49.1,40.5,29.91,West,266,1.0,3.0,72,0.00,,,0.00,97,Wunderground v.1.15,2013-03-19 21:39:00,
2013-03-19 14:44:00,48.9,40.6,29.91,WSW,250,2.0,2.0,73,0.00,,,0.00,105,Wunderground v.1.15,2013-03-19 21:44:00,
2013-03-19 14:49:00,48.6,40.3,29.90,WSW,252,2.0,5.0,73,0.00,,,0.01,121,Wunderground v.1.15,2013-03-19 21:49:00,
2013-03-19 14:55:00,48.3,40.7,29.90,WSW,252,2.0,3.0,75,0.00,,,0.01,130,Wunderground v.1.15,2013-03-19 21:55:00,
2013-03-19 15:00:00,48.3,41.4,29.90,WSW,252,1.0,1.0,77,0.00,,,0.01,116,Wunderground v.1.15,2013-03-19 22:00:00,
2013-03-19 15:05:00,48.3,41.4,29.90,WSW,252,0.0,2.0,77,0.00,,,0.01,125,Wunderground v.1.15,2013-03-19 22:05:00,
2013-03-19 15:11:00,48.5,40.9,29.89,WSW,252,0.0,0.0,75,0.00,,,0.01,146,Wunderground v.1.15,2013-03-19 22:11:00,
2013-03-19 15:16:00,48.5,41.3,29.89,WSW,252,0.0,0.0,76,0.00,,,0.01,132,Wunderground v.1.15,2013-03-19 22:16:00,
2013-03-19 15:21:00,48.5,41.3,29.89,WSW,252,0.0,0.0,76,0.00,,,0.01,137,Wunderground v.1.15,2013-03-19 22:21:00,
2013-03-19 15:26:00,48.6,41.7,29.89,WSW,252,0.0,1.0,77,0.00,,,0.01,155,Wunderground v.1.15,2013-03-19 22:26:00,
2013-03-19 15:31:00,48.6,42.0,29.89,WSW,252,0.0,1.0,78,0.00,,,0.01,130,Wunderground v.1.15,2013-03-19 22:31:00,
2013-03-19 15:36:00,48.8,42.9,29.89,SSW,206,1.0,3.0,80,0.00,,,0.01,123,Wunderground v.1.15,2013-03-19 22:36:00,
2013-03-19 15:41:00,49.1,43.8,29.89,West,271,1.0,2.0,82,0.00,,,0.01,105,Wunderground v.1.15,2013-03-19 22:41:00,
2013-03-19 15:47:00,48.9,44.0,29.89,West,280,2.0,4.0,83,0.00,,,0.02,105,Wunderground v.1.15,2013-03-19 22:47:00,
2013-03-19 15:52:00,48.5,44.2,29.88,WNW,295,3.0,4.0,85,0.00,,,0.02,128,Wunderground v.1.15,2013-03-19 22:52:00,
2013-03-19 15:58:00,48.0,43.7,29.88,West,276,4.0,4.0,85,0.00,,,0.02,118,Wunderground v.1.15,2013-03-19 22:58:00,
2013-03-19 16:03:00,47.9,43.6,29.87,SW,235,4.0,4.0,85,0.00,,,0.02,97,Wunderground v.1.15,2013-03-19 23:03:00,
2013-03-19 16:08:00,47.9,43.9,29.87,WSW,249,3.0,4.0,86,0.00,,,0.02,84,Wunderground v.1.15,2013-03-19 23:08:00,
2013-03-19 16:13:00,47.7,43.7,29.87,West,275,3.0,3.0,86,0.00,,,0.02,74,Wunderground v.1.15,2013-03-19 23:13:00,
2013-03-19 16:19:00,47.6,43.6,29.87,West,275,3.0,3.0,86,0.00,,,0.03,63,Wunderground v.1.15,2013-03-19 23:19:00,
2013-03-19 16:24:00,47.4,43.7,29.86,West,275,2.0,2.0,87,0.00,,,0.03,42,Wunderground v.1.15,2013-03-19 23:24:00,
2013-03-19 16:29:00,47.3,43.9,29.87,West,275,1.0,2.0,88,0.06,,,0.04,37,Wunderground v.1.15,2013-03-19 23:29:00,
2013-03-19 16:35:00,47.1,44.0,29.86,West,275,1.0,2.0,89,0.06,,,0.04,35,Wunderground v.1.15,2013-03-19 23:35:00,
2013-03-19 16:40:00,47.0,43.9,29.86,West,275,1.0,2.0,89,0.05,,,0.05,44,Wunderground v.1.15,2013-03-19 23:40:00,
2013-03-19 16:45:00,47.0,44.2,29.86,West,275,1.0,2.0,90,0.05,,,0.05,65,Wunderground v.1.15,2013-03-19 23:45:00,
2013-03-19 16:50:00,47.0,44.5,29.86,West,275,1.0,1.0,91,0.05,,,0.05,70,Wunderground v.1.15,2013-03-19 23:50:00,
2013-03-19 16:55:00,46.8,44.0,29.86,WSW,243,1.0,3.0,90,0.04,,,0.05,84,Wunderground v.1.15,2013-03-19 23:55:00,
2013-03-19 17:00:00,46.8,44.3,29.85,WSW,244,1.0,1.0,91,0.00,,,0.06,62,Wunderground v.1.15,2013-03-20 00:00:00,
2013-03-19 17:05:00,46.8,44.3,29.85,WSW,244,0.0,5.0,91,0.00,,,0.06,54,Wunderground v.1.15,2013-03-20 00:05:00,
2013-03-19 17:11:00,46.8,44.3,29.85,WSW,243,0.0,0.0,91,0.00,,,0.06,51,Wunderground v.1.15,2013-03-20 00:11:00,
2013-03-19 17:17:00,46.8,44.3,29.85,WSW,244,0.0,0.0,91,0.00,,,0.06,62,Wunderground v.1.15,2013-03-20 00:17:00,
2013-03-19 17:22:00,47.0,44.8,29.84,WSW,244,0.0,0.0,92,0.00,,,0.06,76,Wunderground v.1.15,2013-03-20 00:22:00,
2013-03-19 17:27:00,47.0,44.8,29.83,SE,142,0.0,1.0,92,0.00,,,0.07,46,Wunderground v.1.15,2013-03-20 00:27:00,
2013-03-19 17:33:00,47.1,45.2,29.82,SE,142,0.0,1.0,93,0.00,,,0.07,33,Wunderground v.1.15,2013-03-20 00:33:00,
2013-03-19 17:38:00,47.3,45.7,29.82,SE,142,0.0,1.0,94,0.00,,,0.07,35,Wunderground v.1.15,2013-03-20 00:38:00,
2013-03-19 17:44:00,47.3,45.7,29.82,SE,142,0.0,0.0,94,0.00,,,0.08,33,Wunderground v.1.15,2013-03-20 00:44:00,
2013-03-19 17:50:00,47.4,45.8,29.82,SE,143,0.0,1.0,94,0.00,,,0.08,23,Wunderground v.1.15,2013-03-20 00:50:00,
2013-03-19 17:55:00,47.4,45.8,29.82,SE,142,1.0,1.0,94,0.04,,,0.09,26,Wunderground v.1.15,2013-03-20 00:55:00,
2013-03-19 18:00:00,47.6,46.2,29.82,SE,142,0.0,0.0,95,0.04,,,0.09,23,Wunderground v.1.15,2013-03-20 01:00:00,
2013-03-19 18:05:00,47.4,46.0,29.81,SE,142,0.0,1.0,95,0.06,,,0.10,19,Wunderground v.1.15,2013-03-20 01:05:00,
2013-03-19 18:11:00,47.4,46.0,29.81,SE,142,0.0,0.0,95,0.06,,,0.10,16,Wunderground v.1.15,2013-03-20 01:11:00,
2013-03-19 18:16:00,47.4,46.0,29.80,SE,142,0.0,0.0,95,0.07,,,0.11,14,Wunderground v.1.15,2013-03-20 01:16:00,
2013-03-19 18:21:00,47.4,46.0,29.80,SE,143,0.0,0.0,95,0.12,,,0.12,11,Wunderground v.1.15,2013-03-20 01:21:00,
2013-03-19 18:26:00,47.4,46.0,29.79,SE,143,0.0,0.0,95,0.10,,,0.13,12,Wunderground v.1.15,2013-03-20 01:26:00,
2013-03-19 18:31:00,47.3,45.9,29.79,SE,142,0.0,0.0,95,0.08,,,0.13,16,Wunderground v.1.15,2013-03-20 01:31:00,
2013-03-19 18:36:00,47.0,45.6,29.78,SE,136,0.0,1.0,95,0.07,,,0.14,12,Wunderground v.1.15,2013-03-20 01:36:00,
2013-03-19 18:42:00,47.0,45.6,29.77,SE,136,0.0,1.0,95,0.06,,,0.14,11,Wunderground v.1.15,2013-03-20 01:42:00,
2013-03-19 18:47:00,46.8,45.4,29.77,SE,135,0.0,1.0,95,0.04,,,0.14,9,Wunderground v.1.15,2013-03-20 01:47:00,
2013-03-19 18:53:00,46.7,45.3,29.76,ESE,121,1.0,2.0,95,0.00,,,0.15,5,Wunderground v.1.15,2013-03-20 01:53:00,
2013-03-19 18:58:00,46.7,45.1,29.76,ESE,118,1.0,2.0,94,0.00,,,0.15,0,Wunderground v.1.15,2013-03-20 01:58:00,
2013-03-19 19:04:00,46.5,44.9,29.75,ESE,109,1.0,2.0,94,0.06,,,0.16,0,Wunderground v.1.15,2013-03-20 02:04:00,
2013-03-19 19:10:00,46.4,44.8,29.75,ESE,103,1.0,1.0,94,0.06,,,0.16,0,Wunderground v.1.15,2013-03-20 02:10:00,
2013-03-19 19:15:00,46.2,44.6,29.74,ESE,103,0.0,1.0,94,0.04,,,0.16,0,Wunderground v.1.15,2013-03-20 02:15:00,
2013-03-19 19:20:00,46.2,44.6,29.74,ESE,103,0.0,0.0,94,0.04,,,0.17,0,Wunderground v.1.15,2013-03-20 02:20:00,
2013-03-19 19:25:00,46.1,44.5,29.74,ESE,103,0.0,0.0,94,0.04,,,0.17,0,Wunderground v.1.15,2013-03-20 02:25:00,
2013-03-19 19:30:00,46.1,44.7,29.74,ESE,103,0.0,0.0,95,0.04,,,0.17,0,Wunderground v.1.15,2013-03-20 02:30:00,
2013-03-19 19:35:00,46.2,44.8,29.73,ESE,103,0.0,0.0,95,0.00,,,0.17,0,Wunderground v.1.15,2013-03-20 02:35:00,
2013-03-19 19:41:00,46.4,45.0,29.73,ESE,103,0.0,0.0,95,0.00,,,0.17,0,Wunderground v.1.15,2013-03-20 02:41:00,
2013-03-19 19:46:00,46.2,44.8,29.73,ESE,103,0.0,0.0,95,0.00,,,0.17,0,Wunderground v.1.15,2013-03-20 02:46:00,
2013-03-19 19:52:00,46.2,44.8,29.73,ESE,103,0.0,2.0,95,0.00,,,0.17,0,Wunderground v.1.15,2013-03-20 02:52:00,
2013-03-19 19:58:00,46.2,44.8,29.72,ESE,103,0.0,2.0,95,0.00,,,0.17,0,Wunderground v.1.15,2013-03-20 02:58:00,
2013-03-19 20:03:00,46.1,44.7,29.72,ESE,103,0.0,2.0,95,0.00,,,0.17,0,Wunderground v.1.15,2013-03-20 03:03:00,
2013-03-19 20:08:00,46.0,44.6,29.71,ESE,103,0.0,2.0,95,0.00,,,0.17,0,Wunderground v.1.15,2013-03-20 03:08:00,
2013-03-19 20:13:00,46.0,44.9,29.71,ESE,103,0.0,0.0,96,0.00,,,0.17,0,Wunderground v.1.15,2013-03-20 03:13:00,
2013-03-19 20:18:00,45.8,44.7,29.71,ESE,103,0.0,0.0,96,0.00,,,0.17,0,Wunderground v.1.15,2013-03-20 03:18:00,
2013-03-19 20:23:00,45.8,44.7,29.70,ESE,103,0.0,2.0,96,0.00,,,0.17,0,Wunderground v.1.15,2013-03-20 03:23:00,
2013-03-19 20:29:00,45.8,44.7,29.69,ESE,103,0.0,2.0,96,0.00,,,0.17,0,Wunderground v.1.15,2013-03-20 03:29:00,
2013-03-19 20:34:00,45.8,44.7,29.69,ESE,103,0.0,1.0,96,0.00,,,0.17,0,Wunderground v.1.15,2013-03-20 03:34:00,
2013-03-19 20:40:00,45.8,45.0,29.69,ESE,103,0.0,0.0,97,0.00,,,0.17,0,Wunderground v.1.15,2013-03-20 03:40:00,
2013-03-19 20:45:00,45.8,45.0,29.68,ESE,103,0.0,0.0,97,0.00,,,0.18,0,Wunderground v.1.15,2013-03-20 03:45:00,
2013-03-19 20:51:00,45.7,44.6,29.68,ESE,103,0.0,0.0,96,0.00,,,0.18,0,Wunderground v.1.15,2013-03-20 03:51:00,
2013-03-19 20:56:00,45.7,44.9,29.68,ESE,103,0.0,0.0,97,0.00,,,0.18,0,Wunderground v.1.15,2013-03-20 03:56:00,
2013-03-19 21:00:00,45.7,44.9,29.68,ESE,103,0.0,0.0,97,0.00,,,0.18,0,Wunderground v.1.15,2013-03-20 04:00:00,
2013-03-19 21:02:00,45.7,44.9,29.68,ESE,103,0.0,1.0,97,0.00,,,0.18,0,Wunderground v.1.15,2013-03-20 04:02:00,
2013-03-19 21:04:00,45.7,44.9,29.68,ESE,103,0.0,1.0,97,0.00,,,0.18,0,Wunderground v.1.15,2013-03-20 04:04:00,
2013-03-19 21:08:00,45.7,44.9,29.68,ESE,103,0.0,1.0,97,0.00,,,0.18,0,Wunderground v.1.15,2013-03-20 04:08:00,
2013-03-19 21:13:00,45.8,45.0,29.68,ESE,103,0.0,0.0,97,0.00,,,0.18,0,Wunderground v.1.15,2013-03-20 04:13:00,
2013-03-19 21:18:00,45.7,44.9,29.67,ESE,103,1.0,2.0,97,0.00,,,0.19,0,Wunderground v.1.15,2013-03-20 04:18:00,
2013-03-19 21:24:00,45.5,44.7,29.67,ESE,103,1.0,1.0,97,0.00,,,0.19,0,Wunderground v.1.15,2013-03-20 04:24:00,
2013-03-19 21:29:00,45.7,44.9,29.67,ESE,103,0.0,1.0,97,0.00,,,0.19,0,Wunderground v.1.15,2013-03-20 04:29:00,
2013-03-19 21:34:00,45.7,44.9,29.67,ESE,103,0.0,1.0,97,0.00,,,0.19,0,Wunderground v.1.15,2013-03-20 04:34:00,
2013-03-19 21:39:00,45.7,44.9,29.67,ESE,103,0.0,1.0,97,0.00,,,0.19,0,Wunderground v.1.15,2013-03-20 04:39:00,
2013-03-19 21:44:00,45.8,45.0,29.66,ESE,103,0.0,2.0,97,0.00,,,0.19,0,Wunderground v.1.15,2013-03-20 04:44:00,
2013-03-19 21:49:00,45.5,44.4,29.66,NW,321,1.0,3.0,96,0.00,,,0.19,0,Wunderground v.1.15,2013-03-20 04:49:00,
2013-03-19 21:54:00,45.5,44.4,29.66,NW,321,1.0,2.0,96,0.00,,,0.20,0,Wunderground v.1.15,2013-03-20 04:54:00,
2013-03-19 22:00:00,45.5,44.4,29.66,WNW,302,1.0,2.0,96,0.00,,,0.20,0,Wunderground v.1.15,2013-03-20 05:00:00,
2013-03-19 22:05:00,45.4,44.3,29.66,WNW,302,1.0,2.0,96,0.00,,,0.20,0,Wunderground v.1.15,2013-03-20 05:05:00,
2013-03-19 22:11:00,45.4,44.3,29.65,WNW,302,0.0,0.0,96,0.00,,,0.21,0,Wunderground v.1.15,2013-03-20 05:11:00,
2013-03-19 22:16:00,45.4,44.3,29.66,WNW,296,1.0,2.0,96,0.00,,,0.21,0,Wunderground v.1.15,2013-03-20 05:16:00,
2013-03-19 22:21:00,45.4,44.3,29.65,WNW,296,1.0,1.0,96,0.06,,,0.22,0,Wunderground v.1.15,2013-03-20 05:21:00,
2013-03-19 22:26:00,45.4,44.3,29.65,WNW,296,0.0,2.0,96,0.06,,,0.22,0,Wunderground v.1.15,2013-03-20 05:26:00,
2013-03-19 22:31:00,45.4,44.3,29.65,WNW,296,0.0,0.0,96,0.08,,,0.23,0,Wunderground v.1.15,2013-03-20 05:31:00,
2013-03-19 22:37:00,45.4,44.3,29.64,WNW,296,0.0,0.0,96,0.10,,,0.24,0,Wunderground v.1.15,2013-03-20 05:37:00,
2013-03-19 22:42:00,45.2,44.1,29.64,WNW,296,0.0,0.0,96,0.07,,,0.24,0,Wunderground v.1.15,2013-03-20 05:42:00,
2013-03-19 22:48:00,45.2,44.1,29.63,WNW,296,1.0,1.0,96,0.04,,,0.25,0,Wunderground v.1.15,2013-03-20 05:48:00,
2013-03-19 22:53:00,45.2,44.4,29.63,WNW,296,0.0,0.0,97,0.04,,,0.25,0,Wunderground v.1.15,2013-03-20 05:53:00,
2013-03-19 22:59:00,45.2,44.4,29.63,WNW,296,0.0,0.0,97,0.06,,,0.26,0,Wunderground v.1.15,2013-03-20 05:59:00,
2013-03-19 23:04:00,45.2,44.4,29.63,WNW,296,0.0,3.0,97,0.06,,,0.26,0,Wunderground v.1.15,2013-03-20 06:04:00,
2013-03-19 23:09:00,45.2,44.4,29.63,WNW,296,0.0,3.0,97,0.06,,,0.27,0,Wunderground v.1.15,2013-03-20 06:09:00,
2013-03-19 23:15:00,45.2,44.4,29.63,WNW,296,0.0,0.0,97,0.06,,,0.27,0,Wunderground v.1.15,2013-03-20 06:15:00,
2013-03-19 23:20:00,45.2,44.4,29.63,WNW,296,0.0,0.0,97,0.15,,,0.29,0,Wunderground v.1.15,2013-03-20 06:20:00,
2013-03-19 23:25:00,45.2,44.4,29.63,WNW,296,0.0,0.0,97,0.16,,,0.30,0,Wunderground v.1.15,2013-03-20 06:25:00,
2013-03-19 23:30:00,45.2,44.4,29.62,WNW,296,0.0,0.0,97,0.09,,,0.30,0,Wunderground v.1.15,2013-03-20 06:30:00,
2013-03-19 23:35:00,45.2,44.4,29.62,WNW,296,0.0,2.0,97,0.05,,,0.31,0,Wunderground v.1.15,2013-03-20 06:35:00,
2013-03-19 23:40:00,45.1,44.3,29.62,WNW,296,1.0,1.0,97,0.05,,,0.31,0,Wunderground v.1.15,2013-03-20 06:40:00,
2013-03-19 23:45:00,45.1,44.3,29.62,WNW,296,1.0,3.0,97,0.05,,,0.31,0,Wunderground v.1.15,2013-03-20 06:45:00,
2013-03-19 23:50:00,45.1,44.3,29.62,WNW,296,0.0,0.0,97,0.05,,,0.32,0,Wunderground v.1.15,2013-03-20 06:50:00,
2013-03-19 23:56:00,45.1,44.3,29.61,ESE,115,0.0,3.0,97,0.11,,,0.33,0,Wunderground v.1.15,2013-03-20 06:56:00,